locationName,lineName,date,time,countIn,countOut
��Ƃ�̍L��,�����w����,2022/8/1,0:00,26,24
��Ƃ�̍L��,�����w����,2022/8/1,1:00,3,6
��Ƃ�̍L��,�����w����,2022/8/1,2:00,0,1
��Ƃ�̍L��,�����w����,2022/8/1,3:00,2,11
��Ƃ�̍L��,�����w����,2022/8/1,4:00,5,4
��Ƃ�̍L��,�����w����,2022/8/1,5:00,16,8
��Ƃ�̍L��,�����w����,2022/8/1,6:00,24,30
��Ƃ�̍L��,�����w����,2022/8/1,7:00,18,83
��Ƃ�̍L��,�����w����,2022/8/1,8:00,27,113
��Ƃ�̍L��,�����w����,2022/8/1,9:00,49,113
��Ƃ�̍L��,�����w����,2022/8/1,10:00,55,87
��Ƃ�̍L��,�����w����,2022/8/1,11:00,52,81
��Ƃ�̍L��,�����w����,2022/8/1,12:00,76,120
��Ƃ�̍L��,�����w����,2022/8/1,13:00,56,90
��Ƃ�̍L��,�����w����,2022/8/1,14:00,55,81
��Ƃ�̍L��,�����w����,2022/8/1,15:00,45,64
��Ƃ�̍L��,�����w����,2022/8/1,16:00,37,60
��Ƃ�̍L��,�����w����,2022/8/1,17:00,52,53
��Ƃ�̍L��,�����w����,2022/8/1,18:00,33,79
��Ƃ�̍L��,�����w����,2022/8/1,19:00,26,40
��Ƃ�̍L��,�����w����,2022/8/1,20:00,18,33
��Ƃ�̍L��,�����w����,2022/8/1,21:00,7,25
��Ƃ�̍L��,�����w����,2022/8/1,22:00,4,18
��Ƃ�̍L��,�����w����,2022/8/1,23:00,3,11
��Ƃ�̍L��,�����w����,2022/8/2,0:00,0,2
��Ƃ�̍L��,�����w����,2022/8/2,1:00,1,2
��Ƃ�̍L��,�����w����,2022/8/2,2:00,0,2
��Ƃ�̍L��,�����w����,2022/8/2,3:00,2,7
��Ƃ�̍L��,�����w����,2022/8/2,4:00,4,4
��Ƃ�̍L��,�����w����,2022/8/2,5:00,7,14
��Ƃ�̍L��,�����w����,2022/8/2,6:00,16,21
��Ƃ�̍L��,�����w����,2022/8/2,7:00,19,52
��Ƃ�̍L��,�����w����,2022/8/2,8:00,79,181
��Ƃ�̍L��,�����w����,2022/8/2,9:00,47,106
��Ƃ�̍L��,�����w����,2022/8/2,10:00,60,100
��Ƃ�̍L��,�����w����,2022/8/2,11:00,64,85
��Ƃ�̍L��,�����w����,2022/8/2,12:00,56,97
��Ƃ�̍L��,�����w����,2022/8/2,13:00,41,107
��Ƃ�̍L��,�����w����,2022/8/2,14:00,49,58
��Ƃ�̍L��,�����w����,2022/8/2,15:00,51,73
��Ƃ�̍L��,�����w����,2022/8/2,16:00,42,53
��Ƃ�̍L��,�����w����,2022/8/2,17:00,39,64
��Ƃ�̍L��,�����w����,2022/8/2,18:00,82,53
��Ƃ�̍L��,�����w����,2022/8/2,19:00,41,62
��Ƃ�̍L��,�����w����,2022/8/2,20:00,14,29
��Ƃ�̍L��,�����w����,2022/8/2,21:00,6,40
��Ƃ�̍L��,�����w����,2022/8/2,22:00,15,16
��Ƃ�̍L��,�����w����,2022/8/2,23:00,4,6
��Ƃ�̍L��,�����w����,2022/8/3,0:00,9,11
��Ƃ�̍L��,�����w����,2022/8/3,1:00,2,6
��Ƃ�̍L��,�����w����,2022/8/3,2:00,1,2
��Ƃ�̍L��,�����w����,2022/8/3,3:00,2,6
��Ƃ�̍L��,�����w����,2022/8/3,4:00,6,9
��Ƃ�̍L��,�����w����,2022/8/3,5:00,8,8
��Ƃ�̍L��,�����w����,2022/8/3,6:00,12,25
��Ƃ�̍L��,�����w����,2022/8/3,7:00,17,41
��Ƃ�̍L��,�����w����,2022/8/3,8:00,26,93
��Ƃ�̍L��,�����w����,2022/8/3,9:00,45,87
��Ƃ�̍L��,�����w����,2022/8/3,10:00,48,84
��Ƃ�̍L��,�����w����,2022/8/3,11:00,74,115
��Ƃ�̍L��,�����w����,2022/8/3,12:00,138,163
��Ƃ�̍L��,�����w����,2022/8/3,13:00,52,86
��Ƃ�̍L��,�����w����,2022/8/3,14:00,54,82
��Ƃ�̍L��,�����w����,2022/8/3,15:00,33,81
��Ƃ�̍L��,�����w����,2022/8/3,16:00,29,59
��Ƃ�̍L��,�����w����,2022/8/3,17:00,37,67
��Ƃ�̍L��,�����w����,2022/8/3,18:00,41,78
��Ƃ�̍L��,�����w����,2022/8/3,19:00,17,32
��Ƃ�̍L��,�����w����,2022/8/3,20:00,14,32
��Ƃ�̍L��,�����w����,2022/8/3,21:00,14,33
��Ƃ�̍L��,�����w����,2022/8/3,22:00,14,13
��Ƃ�̍L��,�����w����,2022/8/3,23:00,12,8
��Ƃ�̍L��,�����w����,2022/8/4,0:00,2,8
��Ƃ�̍L��,�����w����,2022/8/4,1:00,1,2
��Ƃ�̍L��,�����w����,2022/8/4,2:00,5,8
��Ƃ�̍L��,�����w����,2022/8/4,3:00,1,9
��Ƃ�̍L��,�����w����,2022/8/4,4:00,5,4
��Ƃ�̍L��,�����w����,2022/8/4,5:00,14,11
��Ƃ�̍L��,�����w����,2022/8/4,6:00,15,25
��Ƃ�̍L��,�����w����,2022/8/4,7:00,24,60
��Ƃ�̍L��,�����w����,2022/8/4,8:00,31,118
��Ƃ�̍L��,�����w����,2022/8/4,9:00,44,101
��Ƃ�̍L��,�����w����,2022/8/4,10:00,62,116
��Ƃ�̍L��,�����w����,2022/8/4,11:00,58,105
��Ƃ�̍L��,�����w����,2022/8/4,12:00,70,81
��Ƃ�̍L��,�����w����,2022/8/4,13:00,78,133
��Ƃ�̍L��,�����w����,2022/8/4,14:00,94,97
��Ƃ�̍L��,�����w����,2022/8/4,15:00,82,70
��Ƃ�̍L��,�����w����,2022/8/4,16:00,77,78
��Ƃ�̍L��,�����w����,2022/8/4,17:00,65,75
��Ƃ�̍L��,�����w����,2022/8/4,18:00,42,63
��Ƃ�̍L��,�����w����,2022/8/4,19:00,18,54
��Ƃ�̍L��,�����w����,2022/8/4,20:00,13,35
��Ƃ�̍L��,�����w����,2022/8/4,21:00,6,28
��Ƃ�̍L��,�����w����,2022/8/4,22:00,12,14
��Ƃ�̍L��,�����w����,2022/8/4,23:00,4,7
��Ƃ�̍L��,�����w����,2022/8/5,0:00,0,6
��Ƃ�̍L��,�����w����,2022/8/5,1:00,3,2
��Ƃ�̍L��,�����w����,2022/8/5,2:00,1,3
��Ƃ�̍L��,�����w����,2022/8/5,3:00,4,8
��Ƃ�̍L��,�����w����,2022/8/5,4:00,7,5
��Ƃ�̍L��,�����w����,2022/8/5,5:00,16,14
��Ƃ�̍L��,�����w����,2022/8/5,6:00,15,24
��Ƃ�̍L��,�����w����,2022/8/5,7:00,12,51
��Ƃ�̍L��,�����w����,2022/8/5,8:00,43,108
��Ƃ�̍L��,�����w����,2022/8/5,9:00,38,93
��Ƃ�̍L��,�����w����,2022/8/5,10:00,68,117
��Ƃ�̍L��,�����w����,2022/8/5,11:00,66,118
��Ƃ�̍L��,�����w����,2022/8/5,12:00,89,102
��Ƃ�̍L��,�����w����,2022/8/5,13:00,86,115
��Ƃ�̍L��,�����w����,2022/8/5,14:00,66,95
��Ƃ�̍L��,�����w����,2022/8/5,15:00,70,94
��Ƃ�̍L��,�����w����,2022/8/5,16:00,84,98
��Ƃ�̍L��,�����w����,2022/8/5,17:00,67,86
��Ƃ�̍L��,�����w����,2022/8/5,18:00,38,88
��Ƃ�̍L��,�����w����,2022/8/5,19:00,39,58
��Ƃ�̍L��,�����w����,2022/8/5,20:00,38,59
��Ƃ�̍L��,�����w����,2022/8/5,21:00,29,40
��Ƃ�̍L��,�����w����,2022/8/5,22:00,7,37
��Ƃ�̍L��,�����w����,2022/8/5,23:00,14,12
��Ƃ�̍L��,�����w����,2022/8/6,0:00,12,17
��Ƃ�̍L��,�����w����,2022/8/6,1:00,1,4
��Ƃ�̍L��,�����w����,2022/8/6,2:00,3,4
��Ƃ�̍L��,�����w����,2022/8/6,3:00,2,10
��Ƃ�̍L��,�����w����,2022/8/6,4:00,5,4
��Ƃ�̍L��,�����w����,2022/8/6,5:00,13,11
��Ƃ�̍L��,�����w����,2022/8/6,6:00,10,22
��Ƃ�̍L��,�����w����,2022/8/6,7:00,11,39
��Ƃ�̍L��,�����w����,2022/8/6,8:00,36,49
��Ƃ�̍L��,�����w����,2022/8/6,9:00,48,70
��Ƃ�̍L��,�����w����,2022/8/6,10:00,60,122
��Ƃ�̍L��,�����w����,2022/8/6,11:00,55,117
��Ƃ�̍L��,�����w����,2022/8/6,12:00,107,152
��Ƃ�̍L��,�����w����,2022/8/6,13:00,71,130
��Ƃ�̍L��,�����w����,2022/8/6,14:00,108,159
��Ƃ�̍L��,�����w����,2022/8/6,15:00,94,117
��Ƃ�̍L��,�����w����,2022/8/6,16:00,56,103
��Ƃ�̍L��,�����w����,2022/8/6,17:00,85,98
��Ƃ�̍L��,�����w����,2022/8/6,18:00,41,80
��Ƃ�̍L��,�����w����,2022/8/6,19:00,41,63
��Ƃ�̍L��,�����w����,2022/8/6,20:00,29,34
��Ƃ�̍L��,�����w����,2022/8/6,21:00,11,34
��Ƃ�̍L��,�����w����,2022/8/6,22:00,12,19
��Ƃ�̍L��,�����w����,2022/8/6,23:00,4,17
��Ƃ�̍L��,�����w����,2022/8/7,0:00,3,12
��Ƃ�̍L��,�����w����,2022/8/7,1:00,9,7
��Ƃ�̍L��,�����w����,2022/8/7,2:00,4,3
��Ƃ�̍L��,�����w����,2022/8/7,3:00,1,10
��Ƃ�̍L��,�����w����,2022/8/7,4:00,2,3
��Ƃ�̍L��,�����w����,2022/8/7,5:00,15,15
��Ƃ�̍L��,�����w����,2022/8/7,6:00,17,13
��Ƃ�̍L��,�����w����,2022/8/7,7:00,23,26
��Ƃ�̍L��,�����w����,2022/8/7,8:00,24,48
��Ƃ�̍L��,�����w����,2022/8/7,9:00,33,72
��Ƃ�̍L��,�����w����,2022/8/7,10:00,66,119
��Ƃ�̍L��,�����w����,2022/8/7,11:00,90,115
��Ƃ�̍L��,�����w����,2022/8/7,12:00,128,162
��Ƃ�̍L��,�����w����,2022/8/7,13:00,135,157
��Ƃ�̍L��,�����w����,2022/8/7,14:00,98,150
��Ƃ�̍L��,�����w����,2022/8/7,15:00,75,156
��Ƃ�̍L��,�����w����,2022/8/7,16:00,91,92
��Ƃ�̍L��,�����w����,2022/8/7,17:00,59,90
��Ƃ�̍L��,�����w����,2022/8/7,18:00,39,52
��Ƃ�̍L��,�����w����,2022/8/7,19:00,20,41
��Ƃ�̍L��,�����w����,2022/8/7,20:00,17,25
��Ƃ�̍L��,�����w����,2022/8/7,21:00,11,27
��Ƃ�̍L��,�����w����,2022/8/7,22:00,4,11
��Ƃ�̍L��,�����w����,2022/8/7,23:00,3,9
��Ƃ�̍L��,�����w����,2022/8/8,0:00,1,1
��Ƃ�̍L��,�����w����,2022/8/8,1:00,0,2
��Ƃ�̍L��,�����w����,2022/8/8,2:00,0,1
��Ƃ�̍L��,�����w����,2022/8/8,3:00,3,1
��Ƃ�̍L��,�����w����,2022/8/8,4:00,4,3
��Ƃ�̍L��,�����w����,2022/8/8,5:00,11,9
��Ƃ�̍L��,�����w����,2022/8/8,6:00,13,24
��Ƃ�̍L��,�����w����,2022/8/8,7:00,26,51
��Ƃ�̍L��,�����w����,2022/8/8,8:00,30,100
��Ƃ�̍L��,�����w����,2022/8/8,9:00,40,103
��Ƃ�̍L��,�����w����,2022/8/8,10:00,65,144
��Ƃ�̍L��,�����w����,2022/8/8,11:00,80,104
��Ƃ�̍L��,�����w����,2022/8/8,12:00,110,150
��Ƃ�̍L��,�����w����,2022/8/8,13:00,82,142
��Ƃ�̍L��,�����w����,2022/8/8,14:00,85,117
��Ƃ�̍L��,�����w����,2022/8/8,15:00,84,136
��Ƃ�̍L��,�����w����,2022/8/8,16:00,52,75
��Ƃ�̍L��,�����w����,2022/8/8,17:00,54,80
��Ƃ�̍L��,�����w����,2022/8/8,18:00,42,56
��Ƃ�̍L��,�����w����,2022/8/8,19:00,37,49
��Ƃ�̍L��,�����w����,2022/8/8,20:00,17,44
��Ƃ�̍L��,�����w����,2022/8/8,21:00,17,65
��Ƃ�̍L��,�����w����,2022/8/8,22:00,7,14
��Ƃ�̍L��,�����w����,2022/8/8,23:00,3,6
��Ƃ�̍L��,�����w����,2022/8/9,0:00,1,2
��Ƃ�̍L��,�����w����,2022/8/9,1:00,3,2
��Ƃ�̍L��,�����w����,2022/8/9,2:00,0,5
��Ƃ�̍L��,�����w����,2022/8/9,3:00,2,8
��Ƃ�̍L��,�����w����,2022/8/9,4:00,5,8
��Ƃ�̍L��,�����w����,2022/8/9,5:00,5,9
��Ƃ�̍L��,�����w����,2022/8/9,6:00,13,27
��Ƃ�̍L��,�����w����,2022/8/9,7:00,22,55
��Ƃ�̍L��,�����w����,2022/8/9,8:00,27,108
��Ƃ�̍L��,�����w����,2022/8/9,9:00,40,99
��Ƃ�̍L��,�����w����,2022/8/9,10:00,60,116
��Ƃ�̍L��,�����w����,2022/8/9,11:00,89,122
��Ƃ�̍L��,�����w����,2022/8/9,12:00,107,148
��Ƃ�̍L��,�����w����,2022/8/9,13:00,79,140
��Ƃ�̍L��,�����w����,2022/8/9,14:00,96,174
��Ƃ�̍L��,�����w����,2022/8/9,15:00,79,87
��Ƃ�̍L��,�����w����,2022/8/9,16:00,61,106
��Ƃ�̍L��,�����w����,2022/8/9,17:00,53,72
��Ƃ�̍L��,�����w����,2022/8/9,18:00,38,69
��Ƃ�̍L��,�����w����,2022/8/9,19:00,63,81
��Ƃ�̍L��,�����w����,2022/8/9,20:00,21,38
��Ƃ�̍L��,�����w����,2022/8/9,21:00,8,26
��Ƃ�̍L��,�����w����,2022/8/9,22:00,8,21
��Ƃ�̍L��,�����w����,2022/8/9,23:00,5,5
��Ƃ�̍L��,�����w����,2022/8/10,0:00,7,6
��Ƃ�̍L��,�����w����,2022/8/10,1:00,3,4
��Ƃ�̍L��,�����w����,2022/8/10,2:00,0,9
��Ƃ�̍L��,�����w����,2022/8/10,3:00,2,7
��Ƃ�̍L��,�����w����,2022/8/10,4:00,1,7
��Ƃ�̍L��,�����w����,2022/8/10,5:00,16,16
��Ƃ�̍L��,�����w����,2022/8/10,6:00,16,24
��Ƃ�̍L��,�����w����,2022/8/10,7:00,25,44
��Ƃ�̍L��,�����w����,2022/8/10,8:00,39,86
��Ƃ�̍L��,�����w����,2022/8/10,9:00,53,120
��Ƃ�̍L��,�����w����,2022/8/10,10:00,66,104
��Ƃ�̍L��,�����w����,2022/8/10,11:00,94,111
��Ƃ�̍L��,�����w����,2022/8/10,12:00,105,168
��Ƃ�̍L��,�����w����,2022/8/10,13:00,83,146
��Ƃ�̍L��,�����w����,2022/8/10,14:00,71,136
��Ƃ�̍L��,�����w����,2022/8/10,15:00,75,101
��Ƃ�̍L��,�����w����,2022/8/10,16:00,69,79
��Ƃ�̍L��,�����w����,2022/8/10,17:00,53,87
��Ƃ�̍L��,�����w����,2022/8/10,18:00,41,72
��Ƃ�̍L��,�����w����,2022/8/10,19:00,34,42
��Ƃ�̍L��,�����w����,2022/8/10,20:00,30,43
��Ƃ�̍L��,�����w����,2022/8/10,21:00,22,44
��Ƃ�̍L��,�����w����,2022/8/10,22:00,17,16
��Ƃ�̍L��,�����w����,2022/8/10,23:00,8,17
��Ƃ�̍L��,�����w����,2022/8/11,0:00,3,10
��Ƃ�̍L��,�����w����,2022/8/11,1:00,1,2
��Ƃ�̍L��,�����w����,2022/8/11,2:00,0,6
��Ƃ�̍L��,�����w����,2022/8/11,3:00,1,9
��Ƃ�̍L��,�����w����,2022/8/11,4:00,1,5
��Ƃ�̍L��,�����w����,2022/8/11,5:00,7,9
��Ƃ�̍L��,�����w����,2022/8/11,6:00,14,23
��Ƃ�̍L��,�����w����,2022/8/11,7:00,20,30
��Ƃ�̍L��,�����w����,2022/8/11,8:00,38,53
��Ƃ�̍L��,�����w����,2022/8/11,9:00,67,96
��Ƃ�̍L��,�����w����,2022/8/11,10:00,83,131
��Ƃ�̍L��,�����w����,2022/8/11,11:00,120,157
��Ƃ�̍L��,�����w����,2022/8/11,12:00,149,214
��Ƃ�̍L��,�����w����,2022/8/11,13:00,156,215
��Ƃ�̍L��,�����w����,2022/8/11,14:00,110,243
��Ƃ�̍L��,�����w����,2022/8/11,15:00,112,172
��Ƃ�̍L��,�����w����,2022/8/11,16:00,111,151
��Ƃ�̍L��,�����w����,2022/8/11,17:00,73,116
��Ƃ�̍L��,�����w����,2022/8/11,18:00,93,113
��Ƃ�̍L��,�����w����,2022/8/11,19:00,98,68
��Ƃ�̍L��,�����w����,2022/8/11,20:00,70,61
��Ƃ�̍L��,�����w����,2022/8/11,21:00,23,40
��Ƃ�̍L��,�����w����,2022/8/11,22:00,13,16
��Ƃ�̍L��,�����w����,2022/8/11,23:00,10,11
��Ƃ�̍L��,�����w����,2022/8/12,0:00,1,7
��Ƃ�̍L��,�����w����,2022/8/12,1:00,2,5
��Ƃ�̍L��,�����w����,2022/8/12,2:00,2,5
��Ƃ�̍L��,�����w����,2022/8/12,3:00,1,7
��Ƃ�̍L��,�����w����,2022/8/12,4:00,3,7
��Ƃ�̍L��,�����w����,2022/8/12,5:00,7,12
��Ƃ�̍L��,�����w����,2022/8/12,6:00,18,32
��Ƃ�̍L��,�����w����,2022/8/12,7:00,15,28
��Ƃ�̍L��,�����w����,2022/8/12,8:00,34,79
��Ƃ�̍L��,�����w����,2022/8/12,9:00,45,127
��Ƃ�̍L��,�����w����,2022/8/12,10:00,86,144
��Ƃ�̍L��,�����w����,2022/8/12,11:00,137,192
��Ƃ�̍L��,�����w����,2022/8/12,12:00,184,271
��Ƃ�̍L��,�����w����,2022/8/12,13:00,141,269
��Ƃ�̍L��,�����w����,2022/8/12,14:00,159,235
��Ƃ�̍L��,�����w����,2022/8/12,15:00,145,180
��Ƃ�̍L��,�����w����,2022/8/12,16:00,104,173
��Ƃ�̍L��,�����w����,2022/8/12,17:00,95,130
��Ƃ�̍L��,�����w����,2022/8/12,18:00,50,94
��Ƃ�̍L��,�����w����,2022/8/12,19:00,36,45
��Ƃ�̍L��,�����w����,2022/8/12,20:00,40,52
��Ƃ�̍L��,�����w����,2022/8/12,21:00,23,35
��Ƃ�̍L��,�����w����,2022/8/12,22:00,17,24
��Ƃ�̍L��,�����w����,2022/8/12,23:00,4,18
��Ƃ�̍L��,�����w����,2022/8/13,0:00,6,6
��Ƃ�̍L��,�����w����,2022/8/13,1:00,5,8
��Ƃ�̍L��,�����w����,2022/8/13,2:00,0,2
��Ƃ�̍L��,�����w����,2022/8/13,3:00,6,11
��Ƃ�̍L��,�����w����,2022/8/13,4:00,2,7
��Ƃ�̍L��,�����w����,2022/8/13,5:00,11,13
��Ƃ�̍L��,�����w����,2022/8/13,6:00,16,16
��Ƃ�̍L��,�����w����,2022/8/13,7:00,19,21
��Ƃ�̍L��,�����w����,2022/8/13,8:00,43,61
��Ƃ�̍L��,�����w����,2022/8/13,9:00,66,102
��Ƃ�̍L��,�����w����,2022/8/13,10:00,91,174
��Ƃ�̍L��,�����w����,2022/8/13,11:00,174,223
��Ƃ�̍L��,�����w����,2022/8/13,12:00,183,262
��Ƃ�̍L��,�����w����,2022/8/13,13:00,139,282
��Ƃ�̍L��,�����w����,2022/8/13,14:00,169,246
��Ƃ�̍L��,�����w����,2022/8/13,15:00,117,196
��Ƃ�̍L��,�����w����,2022/8/13,16:00,128,149
��Ƃ�̍L��,�����w����,2022/8/13,17:00,85,145
��Ƃ�̍L��,�����w����,2022/8/13,18:00,45,74
��Ƃ�̍L��,�����w����,2022/8/13,19:00,23,71
��Ƃ�̍L��,�����w����,2022/8/13,20:00,27,43
��Ƃ�̍L��,�����w����,2022/8/13,21:00,21,43
��Ƃ�̍L��,�����w����,2022/8/13,22:00,58,77
��Ƃ�̍L��,�����w����,2022/8/13,23:00,68,64
��Ƃ�̍L��,�����w����,2022/8/14,0:00,39,26
��Ƃ�̍L��,�����w����,2022/8/14,1:00,2,6
��Ƃ�̍L��,�����w����,2022/8/14,2:00,5,8
��Ƃ�̍L��,�����w����,2022/8/14,3:00,5,9
��Ƃ�̍L��,�����w����,2022/8/14,4:00,3,4
��Ƃ�̍L��,�����w����,2022/8/14,5:00,11,13
��Ƃ�̍L��,�����w����,2022/8/14,6:00,7,17
��Ƃ�̍L��,�����w����,2022/8/14,7:00,22,21
��Ƃ�̍L��,�����w����,2022/8/14,8:00,28,49
��Ƃ�̍L��,�����w����,2022/8/14,9:00,39,77
��Ƃ�̍L��,�����w����,2022/8/14,10:00,112,182
��Ƃ�̍L��,�����w����,2022/8/14,11:00,138,217
��Ƃ�̍L��,�����w����,2022/8/14,12:00,158,229
��Ƃ�̍L��,�����w����,2022/8/14,13:00,180,235
��Ƃ�̍L��,�����w����,2022/8/14,14:00,201,200
��Ƃ�̍L��,�����w����,2022/8/14,15:00,132,194
��Ƃ�̍L��,�����w����,2022/8/14,16:00,142,196
��Ƃ�̍L��,�����w����,2022/8/14,17:00,83,129
��Ƃ�̍L��,�����w����,2022/8/14,18:00,50,59
��Ƃ�̍L��,�����w����,2022/8/14,19:00,17,39
��Ƃ�̍L��,�����w����,2022/8/14,20:00,16,46
��Ƃ�̍L��,�����w����,2022/8/14,21:00,17,28
��Ƃ�̍L��,�����w����,2022/8/14,22:00,15,24
��Ƃ�̍L��,�����w����,2022/8/14,23:00,6,8
��Ƃ�̍L��,�����w����,2022/8/15,0:00,2,7
��Ƃ�̍L��,�����w����,2022/8/15,1:00,1,5
��Ƃ�̍L��,�����w����,2022/8/15,2:00,0,9
��Ƃ�̍L��,�����w����,2022/8/15,3:00,2,8
��Ƃ�̍L��,�����w����,2022/8/15,4:00,3,5
��Ƃ�̍L��,�����w����,2022/8/15,5:00,12,13
��Ƃ�̍L��,�����w����,2022/8/15,6:00,13,20
��Ƃ�̍L��,�����w����,2022/8/15,7:00,21,23
��Ƃ�̍L��,�����w����,2022/8/15,8:00,29,55
��Ƃ�̍L��,�����w����,2022/8/15,9:00,48,86
��Ƃ�̍L��,�����w����,2022/8/15,10:00,71,150
��Ƃ�̍L��,�����w����,2022/8/15,11:00,157,209
��Ƃ�̍L��,�����w����,2022/8/15,12:00,154,250
��Ƃ�̍L��,�����w����,2022/8/15,13:00,156,263
��Ƃ�̍L��,�����w����,2022/8/15,14:00,171,261
��Ƃ�̍L��,�����w����,2022/8/15,15:00,138,177
��Ƃ�̍L��,�����w����,2022/8/15,16:00,121,129
��Ƃ�̍L��,�����w����,2022/8/15,17:00,59,79
��Ƃ�̍L��,�����w����,2022/8/15,18:00,29,86
��Ƃ�̍L��,�����w����,2022/8/15,19:00,23,37
��Ƃ�̍L��,�����w����,2022/8/15,20:00,20,30
��Ƃ�̍L��,�����w����,2022/8/15,21:00,22,31
��Ƃ�̍L��,�����w����,2022/8/15,22:00,13,16
��Ƃ�̍L��,�����w����,2022/8/15,23:00,7,7
��Ƃ�̍L��,�����w����,2022/8/16,0:00,3,6
��Ƃ�̍L��,�����w����,2022/8/16,1:00,2,2
��Ƃ�̍L��,�����w����,2022/8/16,2:00,0,3
��Ƃ�̍L��,�����w����,2022/8/16,3:00,0,8
��Ƃ�̍L��,�����w����,2022/8/16,4:00,2,6
��Ƃ�̍L��,�����w����,2022/8/16,5:00,9,11
��Ƃ�̍L��,�����w����,2022/8/16,6:00,14,19
��Ƃ�̍L��,�����w����,2022/8/16,7:00,15,34
��Ƃ�̍L��,�����w����,2022/8/16,8:00,34,63
��Ƃ�̍L��,�����w����,2022/8/16,9:00,45,88
��Ƃ�̍L��,�����w����,2022/8/16,10:00,76,130
��Ƃ�̍L��,�����w����,2022/8/16,11:00,94,154
��Ƃ�̍L��,�����w����,2022/8/16,12:00,148,196
��Ƃ�̍L��,�����w����,2022/8/16,13:00,128,192
��Ƃ�̍L��,�����w����,2022/8/16,14:00,103,198
��Ƃ�̍L��,�����w����,2022/8/16,15:00,109,154
��Ƃ�̍L��,�����w����,2022/8/16,16:00,80,106
��Ƃ�̍L��,�����w����,2022/8/16,17:00,71,98
��Ƃ�̍L��,�����w����,2022/8/16,18:00,37,45
��Ƃ�̍L��,�����w����,2022/8/16,19:00,17,59
��Ƃ�̍L��,�����w����,2022/8/16,20:00,18,22
��Ƃ�̍L��,�����w����,2022/8/16,21:00,11,30
��Ƃ�̍L��,�����w����,2022/8/16,22:00,4,23
��Ƃ�̍L��,�����w����,2022/8/16,23:00,13,14
��Ƃ�̍L��,�����w����,2022/8/17,0:00,3,9
��Ƃ�̍L��,�����w����,2022/8/17,1:00,0,3
��Ƃ�̍L��,�����w����,2022/8/17,2:00,2,2
��Ƃ�̍L��,�����w����,2022/8/17,3:00,0,6
��Ƃ�̍L��,�����w����,2022/8/17,4:00,2,8
��Ƃ�̍L��,�����w����,2022/8/17,5:00,11,12
��Ƃ�̍L��,�����w����,2022/8/17,6:00,18,24
��Ƃ�̍L��,�����w����,2022/8/17,7:00,17,24
��Ƃ�̍L��,�����w����,2022/8/17,8:00,30,36
��Ƃ�̍L��,�����w����,2022/8/17,9:00,47,86
��Ƃ�̍L��,�����w����,2022/8/17,10:00,86,99
��Ƃ�̍L��,�����w����,2022/8/17,11:00,90,131
��Ƃ�̍L��,�����w����,2022/8/17,12:00,129,180
��Ƃ�̍L��,�����w����,2022/8/17,13:00,92,128
��Ƃ�̍L��,�����w����,2022/8/17,14:00,100,100
��Ƃ�̍L��,�����w����,2022/8/17,15:00,70,112
��Ƃ�̍L��,�����w����,2022/8/17,16:00,72,121
��Ƃ�̍L��,�����w����,2022/8/17,17:00,68,87
��Ƃ�̍L��,�����w����,2022/8/17,18:00,53,68
��Ƃ�̍L��,�����w����,2022/8/17,19:00,10,47
��Ƃ�̍L��,�����w����,2022/8/17,20:00,11,40
��Ƃ�̍L��,�����w����,2022/8/17,21:00,26,30
��Ƃ�̍L��,�����w����,2022/8/17,22:00,11,12
��Ƃ�̍L��,�����w����,2022/8/17,23:00,4,11
��Ƃ�̍L��,�����w����,2022/8/18,0:00,12,12
��Ƃ�̍L��,�����w����,2022/8/18,1:00,2,2
��Ƃ�̍L��,�����w����,2022/8/18,2:00,14,6
��Ƃ�̍L��,�����w����,2022/8/18,3:00,15,6
��Ƃ�̍L��,�����w����,2022/8/18,4:00,15,7
��Ƃ�̍L��,�����w����,2022/8/18,5:00,16,9
��Ƃ�̍L��,�����w����,2022/8/18,6:00,21,16
��Ƃ�̍L��,�����w����,2022/8/18,7:00,36,44
��Ƃ�̍L��,�����w����,2022/8/18,8:00,49,107
��Ƃ�̍L��,�����w����,2022/8/18,9:00,39,98
��Ƃ�̍L��,�����w����,2022/8/18,10:00,66,102
��Ƃ�̍L��,�����w����,2022/8/18,11:00,100,109
��Ƃ�̍L��,�����w����,2022/8/18,12:00,120,162
��Ƃ�̍L��,�����w����,2022/8/18,13:00,115,170
��Ƃ�̍L��,�����w����,2022/8/18,14:00,100,140
��Ƃ�̍L��,�����w����,2022/8/18,15:00,93,80
��Ƃ�̍L��,�����w����,2022/8/18,16:00,60,87
��Ƃ�̍L��,�����w����,2022/8/18,17:00,54,82
��Ƃ�̍L��,�����w����,2022/8/18,18:00,37,54
��Ƃ�̍L��,�����w����,2022/8/18,19:00,25,50
��Ƃ�̍L��,�����w����,2022/8/18,20:00,19,32
��Ƃ�̍L��,�����w����,2022/8/18,21:00,16,27
��Ƃ�̍L��,�����w����,2022/8/18,22:00,13,12
��Ƃ�̍L��,�����w����,2022/8/18,23:00,5,11
��Ƃ�̍L��,�����w����,2022/8/19,0:00,5,4
��Ƃ�̍L��,�����w����,2022/8/19,1:00,3,3
��Ƃ�̍L��,�����w����,2022/8/19,2:00,6,3
��Ƃ�̍L��,�����w����,2022/8/19,3:00,7,10
��Ƃ�̍L��,�����w����,2022/8/19,4:00,7,6
��Ƃ�̍L��,�����w����,2022/8/19,5:00,19,13
��Ƃ�̍L��,�����w����,2022/8/19,6:00,17,22
��Ƃ�̍L��,�����w����,2022/8/19,7:00,17,68
��Ƃ�̍L��,�����w����,2022/8/19,8:00,44,112
��Ƃ�̍L��,�����w����,2022/8/19,9:00,56,137
��Ƃ�̍L��,�����w����,2022/8/19,10:00,79,145
��Ƃ�̍L��,�����w����,2022/8/19,11:00,127,132
��Ƃ�̍L��,�����w����,2022/8/19,12:00,127,194
��Ƃ�̍L��,�����w����,2022/8/19,13:00,101,197
��Ƃ�̍L��,�����w����,2022/8/19,14:00,162,155
��Ƃ�̍L��,�����w����,2022/8/19,15:00,85,131
��Ƃ�̍L��,�����w����,2022/8/19,16:00,102,110
��Ƃ�̍L��,�����w����,2022/8/19,17:00,57,77
��Ƃ�̍L��,�����w����,2022/8/19,18:00,41,84
��Ƃ�̍L��,�����w����,2022/8/19,19:00,18,49
��Ƃ�̍L��,�����w����,2022/8/19,20:00,13,50
��Ƃ�̍L��,�����w����,2022/8/19,21:00,11,47
��Ƃ�̍L��,�����w����,2022/8/19,22:00,9,23
��Ƃ�̍L��,�����w����,2022/8/19,23:00,6,8
��Ƃ�̍L��,�����w����,2022/8/20,0:00,4,6
��Ƃ�̍L��,�����w����,2022/8/20,1:00,2,8
��Ƃ�̍L��,�����w����,2022/8/20,2:00,1,5
��Ƃ�̍L��,�����w����,2022/8/20,3:00,0,8
��Ƃ�̍L��,�����w����,2022/8/20,4:00,2,4
��Ƃ�̍L��,�����w����,2022/8/20,5:00,7,9
��Ƃ�̍L��,�����w����,2022/8/20,6:00,16,29
��Ƃ�̍L��,�����w����,2022/8/20,7:00,12,100
��Ƃ�̍L��,�����w����,2022/8/20,8:00,27,105
��Ƃ�̍L��,�����w����,2022/8/20,9:00,37,66
��Ƃ�̍L��,�����w����,2022/8/20,10:00,59,128
��Ƃ�̍L��,�����w����,2022/8/20,11:00,130,159
��Ƃ�̍L��,�����w����,2022/8/20,12:00,136,216
��Ƃ�̍L��,�����w����,2022/8/20,13:00,111,179
��Ƃ�̍L��,�����w����,2022/8/20,14:00,182,159
��Ƃ�̍L��,�����w����,2022/8/20,15:00,127,140
��Ƃ�̍L��,�����w����,2022/8/20,16:00,84,92
��Ƃ�̍L��,�����w����,2022/8/20,17:00,90,83
��Ƃ�̍L��,�����w����,2022/8/20,18:00,41,65
��Ƃ�̍L��,�����w����,2022/8/20,19:00,24,40
��Ƃ�̍L��,�����w����,2022/8/20,20:00,31,49
��Ƃ�̍L��,�����w����,2022/8/20,21:00,12,36
��Ƃ�̍L��,�����w����,2022/8/20,22:00,11,13
��Ƃ�̍L��,�����w����,2022/8/20,23:00,5,11
��Ƃ�̍L��,�����w����,2022/8/21,0:00,5,15
��Ƃ�̍L��,�����w����,2022/8/21,1:00,1,1
��Ƃ�̍L��,�����w����,2022/8/21,2:00,0,4
��Ƃ�̍L��,�����w����,2022/8/21,3:00,4,8
��Ƃ�̍L��,�����w����,2022/8/21,4:00,4,4
��Ƃ�̍L��,�����w����,2022/8/21,5:00,11,10
��Ƃ�̍L��,�����w����,2022/8/21,6:00,19,16
��Ƃ�̍L��,�����w����,2022/8/21,7:00,7,14
��Ƃ�̍L��,�����w����,2022/8/21,8:00,30,37
��Ƃ�̍L��,�����w����,2022/8/21,9:00,38,71
��Ƃ�̍L��,�����w����,2022/8/21,10:00,74,99
��Ƃ�̍L��,�����w����,2022/8/21,11:00,138,143
��Ƃ�̍L��,�����w����,2022/8/21,12:00,158,166
��Ƃ�̍L��,�����w����,2022/8/21,13:00,157,243
��Ƃ�̍L��,�����w����,2022/8/21,14:00,150,215
��Ƃ�̍L��,�����w����,2022/8/21,15:00,147,180
��Ƃ�̍L��,�����w����,2022/8/21,16:00,110,133
��Ƃ�̍L��,�����w����,2022/8/21,17:00,140,89
��Ƃ�̍L��,�����w����,2022/8/21,18:00,66,60
��Ƃ�̍L��,�����w����,2022/8/21,19:00,12,31
��Ƃ�̍L��,�����w����,2022/8/21,20:00,8,35
��Ƃ�̍L��,�����w����,2022/8/21,21:00,7,24
��Ƃ�̍L��,�����w����,2022/8/21,22:00,3,15
��Ƃ�̍L��,�����w����,2022/8/21,23:00,2,7
��Ƃ�̍L��,�����w����,2022/8/22,0:00,5,10
��Ƃ�̍L��,�����w����,2022/8/22,1:00,0,3
��Ƃ�̍L��,�����w����,2022/8/22,2:00,1,3
��Ƃ�̍L��,�����w����,2022/8/22,3:00,0,5
��Ƃ�̍L��,�����w����,2022/8/22,4:00,4,3
��Ƃ�̍L��,�����w����,2022/8/22,5:00,9,9
��Ƃ�̍L��,�����w����,2022/8/22,6:00,14,19
��Ƃ�̍L��,�����w����,2022/8/22,7:00,17,68
��Ƃ�̍L��,�����w����,2022/8/22,8:00,24,117
��Ƃ�̍L��,�����w����,2022/8/22,9:00,44,80
��Ƃ�̍L��,�����w����,2022/8/22,10:00,71,105
��Ƃ�̍L��,�����w����,2022/8/22,11:00,62,106
��Ƃ�̍L��,�����w����,2022/8/22,12:00,71,118
��Ƃ�̍L��,�����w����,2022/8/22,13:00,85,162
��Ƃ�̍L��,�����w����,2022/8/22,14:00,88,120
��Ƃ�̍L��,�����w����,2022/8/22,15:00,50,85
��Ƃ�̍L��,�����w����,2022/8/22,16:00,37,76
��Ƃ�̍L��,�����w����,2022/8/22,17:00,65,68
��Ƃ�̍L��,�����w����,2022/8/22,18:00,25,42
��Ƃ�̍L��,�����w����,2022/8/22,19:00,20,43
��Ƃ�̍L��,�����w����,2022/8/22,20:00,12,41
��Ƃ�̍L��,�����w����,2022/8/22,21:00,13,24
��Ƃ�̍L��,�����w����,2022/8/22,22:00,4,18
��Ƃ�̍L��,�����w����,2022/8/22,23:00,8,17
��Ƃ�̍L��,�����w����,2022/8/23,0:00,2,3
��Ƃ�̍L��,�����w����,2022/8/23,1:00,0,2
��Ƃ�̍L��,�����w����,2022/8/23,2:00,1,6
��Ƃ�̍L��,�����w����,2022/8/23,3:00,0,7
��Ƃ�̍L��,�����w����,2022/8/23,4:00,1,5
��Ƃ�̍L��,�����w����,2022/8/23,5:00,13,9
��Ƃ�̍L��,�����w����,2022/8/23,6:00,14,25
��Ƃ�̍L��,�����w����,2022/8/23,7:00,16,121
��Ƃ�̍L��,�����w����,2022/8/23,8:00,31,104
��Ƃ�̍L��,�����w����,2022/8/23,9:00,31,106
��Ƃ�̍L��,�����w����,2022/8/23,10:00,51,87
��Ƃ�̍L��,�����w����,2022/8/23,11:00,64,94
��Ƃ�̍L��,�����w����,2022/8/23,12:00,103,119
��Ƃ�̍L��,�����w����,2022/8/23,13:00,75,110
��Ƃ�̍L��,�����w����,2022/8/23,14:00,69,104
��Ƃ�̍L��,�����w����,2022/8/23,15:00,58,74
��Ƃ�̍L��,�����w����,2022/8/23,16:00,68,64
��Ƃ�̍L��,�����w����,2022/8/23,17:00,44,64
��Ƃ�̍L��,�����w����,2022/8/23,18:00,36,68
��Ƃ�̍L��,�����w����,2022/8/23,19:00,25,43
��Ƃ�̍L��,�����w����,2022/8/23,20:00,14,32
��Ƃ�̍L��,�����w����,2022/8/23,21:00,9,32
��Ƃ�̍L��,�����w����,2022/8/23,22:00,6,14
��Ƃ�̍L��,�����w����,2022/8/23,23:00,0,7
��Ƃ�̍L��,�����w����,2022/8/24,0:00,7,14
��Ƃ�̍L��,�����w����,2022/8/24,1:00,1,4
��Ƃ�̍L��,�����w����,2022/8/24,2:00,4,2
��Ƃ�̍L��,�����w����,2022/8/24,3:00,2,6
��Ƃ�̍L��,�����w����,2022/8/24,4:00,1,8
��Ƃ�̍L��,�����w����,2022/8/24,5:00,11,11
��Ƃ�̍L��,�����w����,2022/8/24,6:00,17,18
��Ƃ�̍L��,�����w����,2022/8/24,7:00,16,116
��Ƃ�̍L��,�����w����,2022/8/24,8:00,25,68
��Ƃ�̍L��,�����w����,2022/8/24,9:00,42,83
��Ƃ�̍L��,�����w����,2022/8/24,10:00,34,91
��Ƃ�̍L��,�����w����,2022/8/24,11:00,59,88
��Ƃ�̍L��,�����w����,2022/8/24,12:00,62,99
��Ƃ�̍L��,�����w����,2022/8/24,13:00,78,113
��Ƃ�̍L��,�����w����,2022/8/24,14:00,54,94
��Ƃ�̍L��,�����w����,2022/8/24,15:00,75,87
��Ƃ�̍L��,�����w����,2022/8/24,16:00,96,96